Location: Azenweiler
(47.8027°N, 9.4096°E)
Time: 14:08:31
(UTC+00:00)

CBERS-1 - Pass Details

Date: 10 December 2025
Orbit: 764 x 773 km, 98.8° (Epoch: 19 January)

Event Time Altitude Azimuth Distance (km) Brightness Sun altitude
Rises 05:14:24 0° 17° (NNE) 3,253 7.3 -16.9°
Reaches altitude 10° 05:16:45 10° 20° (NNE) 2,320 6.5 -16.5°
Maximum altitude 05:21:50 65° 103° (ESE) 841 4.4 -15.7°
Drops below altitude 10° 05:26:52 10° 185° (S) 2,298 6.6 -14.9°
Sets 05:29:10 0° 188° (S) 3,219 7.4 -14.5°
